This demonstration page uses our WeatherBlox Daily Observations layout. Learn more.

Left ArrowRight Arrow

38.20091, -84.87328

Hourly Observations for March 11, 2022

Temp ( °F °C ) Dew Point ( °F °C ) Humidity (%) Winds ( mph kmh ) Pressure ( in mb ) Visibility ( mi km ) Precip ( " mm )
12:53 am 00:53 Clear 36 2.2 31 -0.6 82 82 Calm 30.04 1017 10 16 0.00 0.00
1:53 am 01:53 Clear 33 0.6 30 -1.1 89 89 Calm 30.02 1017 10 16 0.00 0.00
2:53 am 02:53 Clear 33 0.6 30 -1.1 89 89 Calm 30.00 1016 10 16 0.00 0.00
3:53 am 03:53 Clear 32 0 29 -1.7 88 88 Calm 29.99 1016 10 16 0.00 0.00
4:53 am 04:53 Clear 31 -0.6 29 -1.7 92 92 Calm 30.00 1016 10 16 0.00 0.00
5:53 am 05:53 Clear 31 -0.6 28 -2.2 89 89 Calm 29.98 1015 10 16 0.00 0.00
6:53 am 06:53 Clear 30 -1.1 28 -2.2 92 92 Calm 29.99 1016 10 16 0.00 0.00
7:53 am 07:53 Sunny 33 0.6 30 -1.1 89 89 Calm 29.99 1016 10 16 0.00 0.00
8:53 am 08:53 Sunny 41 5 34 1.1 76 76 SSE 5 7 29.98 1015 10 16 0.00 0.00
9:53 am 09:53 Sunny 50 10 36 2.2 59 59 S 6 9 29.96 1015 10 16 0.00 0.00
10:53 am 10:53 Sunny 55 12.8 37 2.8 51 51 SSW 9 15 29.95 1014 10 16 0.00 0.00
11:53 am 11:53 Sunny 59 15 35 1.7 41 41 WSW 10 17 29.93 1014 10 16 0.00 0.00
12:53 pm 12:53 Sunny 60 15.6 35 1.7 39 39 W 10 17 29.92 1013 10 16 0.00 0.00
1:53 pm 13:53 Mostly Sunny 60 15.6 35 1.7 39 39 W 13 20 29.90 1013 10 16 0.00 0.00
2:53 pm 14:53 Sunny 59 15 37 2.8 44 44 NW 10 17 29.88 1012 10 16 0.00 0.00
3:53 pm 15:53 Partly Cloudy 55 12.8 37 2.8 51 51 NNW 16 26 29.88 1012 10 16 0.00 0.00
4:53 pm 16:53 Mostly Cloudy 48 8.9 33 0.6 56 56 NW 14 22 29.89 1012 10 16 0.00 0.00
5:53 pm 17:53 Cloudy 41 5 32 0 70 70 NW 18 30 29.96 1015 10 16 0.00 0.00
6:30 pm 18:30 Cloudy 38 3.3 32 0 79 79 NNW 18 30 29.99 1016 10 16 0.00 0.00
6:37 pm 18:37 Cloudy 36 2.2 31 -0.6 82 82 NNW 17 28 30.00 1016 10 16 0.00 0.00
6:53 pm 18:53 Cloudy with Light Snow 35 1.7 30 -1.1 82 82 NNW 17 28 29.97 1015 4 6 0.00 0.00
7:08 pm 19:08 Cloudy with Light Snow 34 1.1 30 -1.1 85 85 NNW 18 30 29.99 1015 3 4 0.00 0.00
7:18 pm 19:18 Cloudy with Light Snow 34 1.1 30 -1.1 85 85 NNW 16 26 29.99 1015 2 3 0.00 0.00
7:28 pm 19:28 Cloudy with Light Snow 34 1.1 31 -0.6 89 89 NNW 14 22 29.99 1015 2 2 0.00 0.00
7:34 pm 19:34 Cloudy with Light Snow 33 0.6 31 -0.6 92 92 NNW 14 22 29.98 1015 1 2 0.00 0.00
7:48 pm 19:48 Cloudy with Light Snow 34 1 30 -1 87 87 NNW 12 19 29.98 1015 1 2 0.00 0.00
7:53 pm 19:53 Cloudy with Light Snow 33 0.6 30 -1.1 89 89 NNW 13 20 29.95 1014 1 2 0.00 0.00
8:04 pm 20:04 Cloudy with Light Snow 32 0 30 -1.1 92 92 NNW 13 20 29.97 1015 2 2 0.00 0.00
8:12 pm 20:12 Cloudy with Light Snow 32 0 30 -1.1 92 92 NNW 13 20 29.97 1015 2 3 0.00 0.00
8:25 pm 20:25 Cloudy with Light Snow 32 0 29 -1.7 88 88 NNW 12 19 29.99 1016 3 4 0.00 0.00
8:37 pm 20:37 Cloudy with Light Snow 32 0 29 -1.7 88 88 NNW 15 24 29.99 1016 2 2 0.01 0.25
8:48 pm 20:48 Cloudy with Light Snow 30 -1 28 -2 93 93 N 12 19 29.99 1016 1 1 0.01 0.25
8:53 pm 20:53 Cloudy with Light Snow 31 -0.6 28 -2.2 89 89 N 13 20 29.96 1015 1 1 0.01 0.25
8:58 pm 20:58 Mostly Cloudy with Light Snow 31 -0.6 28 -2.2 89 89 N 9 15 29.99 1016 1 2 0.00 0.00
9:19 pm 21:19 Cloudy with Light Snow 30 -1.1 28 -2.2 92 92 NNW 10 17 30.00 1016 1 1 0.02 0.51
9:35 pm 21:35 Cloudy with Light Snow 28 -2.2 24 -4.4 85 85 NNW 15 24 30.03 1017 1 2 0.02 0.51
9:42 pm 21:42 Cloudy with Light Snow 28 -2.2 25 -3.9 88 88 NNW 12 19 30.03 1017 1 1 0.02 0.51
9:53 pm 21:53 Mostly Cloudy with Light Snow 28 -2.2 25 -3.9 88 88 NNW 9 15 29.98 1015 1 1 0.03 0.76
10:04 pm 22:04 Mostly Cloudy with Light Snow 28 -2.2 26 -3.3 92 92 NNW 6 9 30.03 1017 1 2 0.00 0.00
10:18 pm 22:18 Cloudy with Light Snow 28 -2.2 25 -3.9 88 88 NNW 9 15 30.02 1017 1 2 0.01 0.25
10:25 pm 22:25 Mostly Cloudy with Light Snow 28 -2.2 26 -3.3 92 92 NNW 8 13 30.02 1017 1 2 0.01 0.25
10:36 pm 22:36 Mostly Cloudy with Light Snow 28 -2.2 26 -3.3 92 92 NNW 6 9 30.04 1017 1 1 0.02 0.51
10:43 pm 22:43 Mostly Cloudy with Snow 28 -2.2 26 -3.3 92 92 NNW 8 13 30.03 1017 1 1 0.03 0.76
10:53 pm 22:53 Mostly Cloudy with Snow 28 -2.2 25 -3.9 88 88 NNW 9 15 29.99 1016 1 1 0.04 1.02
11:32 pm 23:32 Cloudy with Light Snow 28 -2.2 26 -3.3 92 92 N 8 13 30.01 1016 1 2 0.03 0.76
11:49 pm 23:49 Cloudy with Light Snow 27 -3 25 -4 93 93 NNW 9 15 30.01 1016 1 2 0.04 1.02
11:53 pm 23:53 Cloudy with Light Snow 28 -2.2 24 -4.4 85 85 NNW 10 17 29.97 1015 1 2 0.04 1.02

Powered by AerisWeather